Weather History for Inverness, FL

Change the Weather History Date:

Thursday, January 3, 2013

  Actual Average (KOCF) Record (KOCF)
Temperature  
Mean Temperature 62 °F -  
Max Temperature 68 °F 66 °F 80 °F (2000)
Min Temperature 55 °F 41 °F 24 °F (2008)
Degree Days  
Heating Degree Days 4    
Growing Degree Days 12 (Base 50)    
Moisture  
Dew Point 60 °F    
Average Humidity 97    
Maximum Humidity 100    
Minimum Humidity 83    
Precipitation  
Precipitation 0.11 in - - ()
Sea Level Pressure  
Sea Level Pressure 30.12 in    
Wind  
Wind Speed 3 mph (NNE)    
Max Wind Speed 15 mph    
Max Gust Speed 18 mph    
Visibility 5 miles    
Events Fog , Rain    
Averages and records for this station are not official NWS values.
T = Trace of Precipitation, MM = Missing Value Source: NWS Daily Summary

Daily Weather History Graph

Daily Weather History Graph

Search for Another Location

Airport:

Trip Planner

Search our weather history database for the weather conditions in past years. The results will help you decide how hot, cold, wet, or windy it might be!

Date:

Astronomy

Jan. 03, 2013 Rise Set
Actual Time 7:23 AM EST 5:45 PM EST
Civil Twilight 6:57 AM EST 6:10 PM EST
Nautical Twilight 6:27 AM EST 6:40 PM EST
Astronomical Twilight 5:58 AM EST 7:09 PM EST
Moon 11:45 PM EST (1/3) 11:05 AM EST (1/3)
Length of Visible Light 11h 13m
Length of Day
10h 22m
Waning Gibbous, 65% of the Moon is Illuminated
Jan 3
Waning Gibbous
Jan 4
Last Quarter
Jan 11
New
Jan 18
First Quarter
Jan 26
Full

Hourly Weather History & Observations

Time (EST) Temp. Dew Point Humidity Pressure Visibility Wind Dir Wind Speed Gust Speed Precip Events Conditions
12:15 AM 64.4 °F 64.4 °F 100% 30.08 in 0.8 mi Calm Calm - N/A   Overcast
12:35 AM 64.4 °F 64.4 °F 100% 30.07 in 0.8 mi Calm Calm - N/A   Overcast
12:55 AM 64.4 °F 64.4 °F 100% 30.07 in 1.5 mi Calm Calm - N/A   Overcast
1:15 AM 64.4 °F 64.4 °F 100% 30.06 in 2.0 mi Calm Calm - N/A   Overcast
1:35 AM 64.4 °F 64.4 °F 100% 30.06 in 1.5 mi Calm Calm - N/A   Overcast
1:55 AM 64.4 °F 64.4 °F 100% 30.07 in 0.8 mi Calm Calm - N/A   Overcast
2:15 AM 64.4 °F 64.4 °F 100% 30.06 in 0.5 mi NE 3.5 mph - N/A Fog Fog
2:35 AM 62.6 °F 62.6 °F 100% 30.06 in 0.8 mi Calm Calm - N/A   Overcast
2:55 AM 62.6 °F 62.6 °F 100% 30.06 in 3.0 mi Calm Calm - N/A   Overcast
3:15 AM 62.6 °F 62.6 °F 100% 30.06 in 2.0 mi Calm Calm - N/A   Overcast
3:35 AM 62.6 °F 62.6 °F 100% 30.06 in 2.5 mi Calm Calm - N/A   Overcast
3:55 AM 62.6 °F 62.6 °F 100% 30.06 in 2.0 mi Calm Calm - N/A   Overcast
4:15 AM 62.6 °F 62.6 °F 100% 30.07 in 2.0 mi Calm Calm - N/A   Overcast
4:35 AM 62.6 °F 62.6 °F 100% 30.07 in 3.0 mi NNE 3.5 mph - N/A   Overcast
4:55 AM 62.6 °F 62.6 °F 100% 30.07 in 3.0 mi Calm Calm - N/A   Overcast
5:15 AM 62.6 °F 62.6 °F 100% 30.06 in 2.5 mi NE 3.5 mph - N/A   Overcast
5:35 AM 62.6 °F 62.6 °F 100% 30.06 in 3.0 mi East 3.5 mph - N/A   Overcast
5:55 AM 62.6 °F 62.6 °F 100% 30.07 in 5.0 mi Calm Calm - N/A   Overcast
6:15 AM 62.6 °F 62.6 °F 100% 30.08 in 5.0 mi Calm Calm - N/A   Overcast
6:35 AM 62.6 °F 62.6 °F 100% 30.08 in 5.0 mi Calm Calm - N/A   Overcast
6:55 AM 62.6 °F 62.6 °F 100% 30.09 in 5.0 mi Calm Calm - N/A   Overcast
7:15 AM 62.6 °F 62.6 °F 100% 30.10 in 5.0 mi Calm Calm - N/A   Overcast
7:35 AM 62.6 °F 62.6 °F 100% 30.11 in 4.0 mi Calm Calm - N/A   Overcast
7:55 AM 62.6 °F 62.6 °F 100% 30.10 in 2.0 mi Calm Calm - N/A   Overcast
8:15 AM 62.6 °F 62.6 °F 100% 30.11 in 3.0 mi Calm Calm - N/A   Overcast
8:35 AM 62.6 °F 62.6 °F 100% 30.11 in 4.0 mi Calm Calm - N/A   Overcast
8:55 AM 64.4 °F 62.6 °F 94% 30.10 in 4.0 mi SE 4.6 mph - N/A   Overcast
9:15 AM 64.4 °F 62.6 °F 94% 30.12 in 4.0 mi East 3.5 mph - N/A   Overcast
9:35 AM 64.4 °F 62.6 °F 94% 30.13 in 4.0 mi Calm Calm - N/A   Overcast
9:55 AM 64.4 °F 62.6 °F 94% 30.14 in 4.0 mi ESE 3.5 mph - N/A   Overcast
10:15 AM 64.4 °F 62.6 °F 94% 30.14 in 5.0 mi Calm Calm - N/A   Overcast
10:35 AM 64.4 °F 62.6 °F 94% 30.15 in 4.0 mi Calm Calm - N/A   Overcast
10:55 AM 64.4 °F 62.6 °F 94% 30.14 in 4.0 mi Calm Calm - N/A   Overcast
11:15 AM 66.2 °F 62.6 °F 88% 30.14 in 4.0 mi Calm Calm - N/A   Overcast
11:35 AM 66.2 °F 62.6 °F 88% 30.13 in 5.0 mi Calm Calm - N/A   Overcast
11:55 AM 66.2 °F 62.6 °F 88% 30.12 in 5.0 mi NNE 3.5 mph - N/A   Overcast
12:15 PM 66.2 °F 62.6 °F 88% 30.11 in 7.0 mi Calm Calm - N/A   Overcast
12:35 PM 66.2 °F 62.6 °F 88% 30.10 in 7.0 mi NNE 4.6 mph - N/A   Overcast
12:55 PM 68.0 °F 62.6 °F 83% 30.09 in 7.0 mi NE 4.6 mph - N/A   Overcast
1:15 PM 68.0 °F 62.6 °F 83% 30.09 in 7.0 mi NNE 4.6 mph - N/A   Overcast
1:35 PM 68.0 °F 62.6 °F 83% 30.09 in 7.0 mi Calm Calm - N/A   Overcast
1:55 PM 68.0 °F 62.6 °F 83% 30.09 in 7.0 mi NNE 5.8 mph - N/A   Overcast
2:15 PM 66.2 °F 62.6 °F 88% 30.09 in 7.0 mi NNE 5.8 mph - N/A   Overcast
2:35 PM 62.6 °F 60.8 °F 94% 30.10 in 5.0 mi North 11.5 mph - N/A Rain Rain
2:55 PM 60.8 °F 60.8 °F 100% 30.11 in 3.0 mi North 9.2 mph - N/A Rain Light Rain
3:15 PM 60.8 °F 60.8 °F 100% 30.11 in 5.0 mi North 11.5 mph - N/A   Light Drizzle
3:35 PM 60.8 °F 59.0 °F 94% 30.11 in 5.0 mi North 12.7 mph - N/A   Overcast
3:55 PM 59.0 °F 59.0 °F 100% 30.12 in 5.0 mi North 12.7 mph 17.3 mph N/A   Overcast
4:15 PM 59.0 °F 59.0 °F 100% 30.12 in 10.0 mi NNE 15.0 mph - N/A   Overcast
4:35 PM 59.0 °F 57.2 °F 94% 30.13 in 10.0 mi NNE 9.2 mph - N/A Rain Rain
4:55 PM 59.0 °F 57.2 °F 94% 30.14 in 10.0 mi NNE 9.2 mph - N/A   Drizzle
5:15 PM 59.0 °F 57.2 °F 94% 30.14 in 10.0 mi NNE 11.5 mph - N/A   Light Drizzle
5:35 PM 57.2 °F 55.4 °F 94% 30.16 in 7.0 mi North 15.0 mph - N/A   Light Drizzle
5:55 PM 55.4 °F 55.4 °F 100% 30.16 in 7.0 mi NNE 10.4 mph 18.4 mph N/A Rain Light Rain
6:15 PM 55.4 °F 55.4 °F 100% 30.17 in 7.0 mi NNE 8.1 mph - 0.01 in Rain Rain
6:35 PM 55.4 °F 55.4 °F 100% 30.17 in 7.0 mi NE 8.1 mph - 0.03 in   Heavy Drizzle
6:55 PM 55.4 °F 55.4 °F 100% 30.18 in 7.0 mi NNE 9.2 mph - 0.04 in Rain Rain
7:15 PM 55.4 °F 55.4 °F 100% 30.18 in 7.0 mi NE 8.1 mph - 0.02 in Rain Rain
7:35 PM 55.4 °F 55.4 °F 100% 30.19 in 7.0 mi ENE 4.6 mph - 0.02 in   Drizzle
7:55 PM 55.4 °F 55.4 °F 100% 30.19 in 7.0 mi ENE 3.5 mph - 0.03 in   Heavy Drizzle
8:15 PM 55.4 °F 55.4 °F 100% 30.20 in 5.0 mi NE 5.8 mph - 0.01 in   Heavy Drizzle
8:35 PM 55.4 °F 55.4 °F 100% 30.19 in 10.0 mi NE 4.6 mph - 0.01 in   Overcast
8:55 PM 55.4 °F 55.4 °F 100% 30.20 in 10.0 mi NNE 5.8 mph - 0.01 in   Overcast
9:15 PM 55.4 °F 55.4 °F 100% 30.20 in 10.0 mi NE 6.9 mph - N/A   Overcast
9:35 PM 55.4 °F 55.4 °F 100% 30.22 in 10.0 mi NE 6.9 mph - N/A Rain Rain
9:55 PM 55.4 °F 55.4 °F 100% 30.23 in 7.0 mi North 3.5 mph - 0.02 in   Heavy Drizzle
10:15 PM 55.4 °F 55.4 °F 100% 30.22 in 7.0 mi NNE 6.9 mph - 0.01 in   Heavy Drizzle
10:35 PM 55.4 °F 55.4 °F 100% 30.23 in 7.0 mi North 9.2 mph - 0.01 in   Overcast
10:55 PM 55.4 °F 55.4 °F 100% 30.21 in 7.0 mi North 6.9 mph - 0.01 in   Overcast
11:15 PM 55.4 °F 55.4 °F 100% 30.22 in 10.0 mi NNE 5.8 mph - N/A   Overcast
11:35 PM 55.4 °F 55.4 °F 100% 30.22 in 10.0 mi NNE 9.2 mph - N/A   Overcast
11:55 PM 55.4 °F 55.4 °F 100% 30.21 in 10.0 mi NNE 8.1 mph - N/A Rain Light Rain